Weather in Vizindor

Russia / Komi Republic     60°58′02″N   49°41′32″E
temp.,
°C
wind,
m/s
gust,
m/s
humid.,
%
clouds,
%
prec.,
mm/h
press.,
hPa
HPBL,
m
28 january, thu
thu2800:000s51198100 1.7 1006663
03:000wsw51297100 2.6 10061190
06:00−4sw3129258 0.1 1007454
09:00−4wsw489179 0.1 1009670
12:00−3sw389299 0.1 1011456
15:00−5wsw249592 0.1 1013197
18:00−7ssw1197100 0.0 101428
21:00−9se1297100 0.0 101521
29 january, fri
fri2900:00−8ese2296100 0.0 101581
03:00−5e2597100 0.2 1015183
06:00−4ese369699 0.6 1014272
09:00−6se389599 0.6 1013376
12:00−6se3792100 0.0 1013388
15:00−6se3892100 0.0 1011412
18:00−7se41094100 0.0 1010450
21:00−7se3994100 0.1 1010434
30 january, sat
sat3000:00−8se3994100 0.1 1008494
03:00−8se3995100 0.2 1007409
06:00−7se3995100 0.3 1004461
09:00−6se3995100 0.8 1003573
12:00−5se4894100 0.6 1002511
15:00−5sse3893100 0.8 1002500
18:00−5sse3794100 0.1 1001550
21:00−5sse3895100 0.4 1002415
31 january, sun
sun3100:00−6s399599 0.3 1003432
03:00−8s389690 0.3 1004240
06:00−11s279786 0.0 1005177
09:00−10sse289691 0.1 1005276
12:00−6sse3990100 0.0 1005452
15:00−5se41190100 0.1 1003559
18:00−4se51394100 1.1 1001762
21:000se71495100 1.9 9981100
1 february, mon
mon100:00−1sse71691100 1.3 9951361
03:00−2sse71594100 2.1 9921325
06:00−3sse61392100 0.8 9901045
09:00−3s61294100 1.6 990999
12:00−2ssw51192100 0.3 993970
15:00−5wsw61290100 0.8 9981035
18:00−7sw51389100 0.1 1003931
21:00−8sw51290100 0.3 1006744